Location: Lafig�re
(44.4503°N, 4.0357°E)
Time: 05:45:57
(UTC+00:00)

Transit 2A Rocket - Pass Details

Date: 20 June 2021
Orbit: 590 x 913 km, 66.7° (Epoch: 26 July)

Event Time Altitude Azimuth Distance (km) Brightness Sun altitude
Exits shadow 01:37:51 10° 271° (W) 1,927 6.8 -17.4°
Maximum altitude 01:41:00 19° 318° (NW) 1,441 6.7 -17.2°
Drops below altitude 10° 01:44:16 10° 6° (N) 2,006 8.2 -16.9°
Sets 01:47:11 0° 24° (NNE) 2,966 9.8 -16.6°
